Location: Daouli
(14.8671°N, 3.2030°W)
Time: 00:41:10
(UTC+00:00)

Cosmos 2322 Rocket - Pass Details

Date: 29 October 2020
Orbit: 833 x 851 km, 71.0° (Epoch: 02 December)

Event Time Altitude Azimuth Distance (km) Brightness Sun altitude
Rises 19:35:53 0° 194° (SSW) 3,392 5.6 -27.1°
Reaches altitude 10° 19:38:19 10° 193° (SSW) 2,460 4.8 -27.7°
Enters shadow 19:43:00 62° 183° (S) 946 2.4 -28.8°
